Location: Plum
(40.5000°N, 79.7500°W)
Time: 21:25:14
(UTC-04:00)

Daily predictions for brighter satellites

Satellite Brightness Start Highest point End
(mag) Time Altitude Azimuth Time Altitude Azimuth Time Altitude Azimuth
COSMOS 2406 3.9 21:02:15 10° SW 21:07:55 61° WNW 21:13:34 10° NNE
Cosmos 1743 3.1 21:06:22 10° NNW 21:10:16 69° W 21:14:08 10° S
Cosmos 1371 Rocket 4.3 21:08:07 10° N 21:13:22 57° ENE 21:18:31 10° SSE
OE (NEXTSAT) 4.4 21:10:38 10° WNW 21:14:13 87° SSW 21:17:47 10° ESE
Spot 1 4.2 21:10:12 10° SSE 21:14:33 61° ENE 21:18:43 10° N
Cosmos 1697 Rocket 4.4 21:13:11 10° N 21:17:13 20° NE 21:21:14 10° E
ASTEX 1 3.8 21:15:10 10° SSE 21:19:48 44° ENE 21:24:26 10° N
PSLV R/B 4.1 21:17:00 10° W 21:19:50 33° SSW 21:22:41 10° SE
Cosmos 1666 3.0 21:21:17 10° NNW 21:25:01 68° W 21:28:44 10° S
Cosmos 2369 4.4 21:20:07 10° N 21:25:33 42° ENE 21:30:49 11° SE
Meteor 1-15 Rocket 4.4 21:21:47 10° N 21:27:18 57° ENE 21:32:45 10° SSE
Okean 2 3.6 21:23:39 10° SSE 21:27:34 48° E 21:31:31 10° NNE
Cosmos 2154 Rocket 4.2 21:21:51 10° N 21:28:07 57° E 21:34:20 10° SSE
Meteor 1-29 2.8 21:26:00 10° NNE 21:29:23 69° ESE 21:32:43 10° S
Cosmos 967 Rocket 4.4 21:24:57 10° SSW 21:31:11 74° ESE 21:37:27 10° NE
Meteor 2-9 Rocket 4.3 21:25:49 10° N 21:31:23 88° WSW 21:37:04 10° S
Cosmos 1833 Rocket 3.5 21:27:18 10° SSE 21:32:07 30° ESE 21:36:57 10° NE
Cosmos 1892 Rocket 4.3 21:29:29 10° SSE 21:33:30 35° E 21:37:32 10° NNE
Tiangong 2 1.8 21:35:26 10° W 21:38:34 53° N 21:41:42 10° E
Cosmos 1606 Rocket 3.6 21:39:43 10° N 21:43:59 58° E 21:47:52 12° SSE
Cosmos 1025 Rocket 3.1 21:40:00 10° S 21:44:14 79° W 21:48:32 10° N
Okean 1-7 Rocket 3.9 21:40:05 10° SSW 21:44:32 71° W 21:49:04 10° N
NOSS 8 (E) 4.4 21:43:25 10° SSW 21:46:52 80° ESE 21:50:33 10° NE
Cosmos 1726 Rocket 3.6 21:48:14 10° N 21:52:31 60° E 21:55:57 15° SSE
Cosmos 1624 Rocket 4.2 21:50:20 10° NNW 21:55:38 74° WSW 22:00:37 12° S
Cosmos 1515 3.6 21:53:43 10° S 21:57:29 72° E 22:01:18 10° NNE
Cosmos 1437 Rocket 2.9 21:53:56 10° NNW 21:57:48 75° W 22:01:23 12° S
Terra 3.8 21:59:51 11° E 22:02:16 16° ENE 22:05:02 10° NNE
Cosmos 1939 Rocket 4.3 22:01:38 10° SSW 22:05:09 34° W 22:08:43 10° NNW
Cosmos 2341 Rocket 4.0 21:59:18 10° N 22:05:42 82° E 22:11:29 13° S
ARGOS 3.4 22:02:00 18° SE 22:05:54 53° ENE 22:11:11 10° N
Cosmos 1980 Rocket 3.4 22:02:16 10° N 22:07:07 28° NE 22:10:36 16° ESE
USA 245 3.1 22:08:25 27° E 22:08:35 28° ENE 22:10:35 10° NNE
Hubble Space Telescope 2.8 22:06:39 10° SSW 22:08:03 13° S 22:08:03 13° S
Timation 2 Rocket 4.4 22:03:27 10° S 22:09:23 41° ESE 22:15:06 10° NE
H-2A R/B 2.8 22:06:47 19° ESE 22:09:38 35° ENE 22:14:13 10° N
Cosmos 2218 Rocket 4.4 22:06:20 10° N 22:12:15 47° ENE 22:16:06 21° SE
SL-08 RB Rocket 4.1 22:10:08 23° SE 22:12:36 45° ENE 22:16:53 10° N
SL-24 DEB 4.3 22:11:31 21° SSE 22:14:32 62° E 22:19:08 10° N
Cosmos 2058 Rocket 3.0 22:10:40 10° N 22:15:07 79° E 22:18:01 22° SSE
Cosmos 2056 Rocket 4.1 22:10:27 10° NNW 22:15:26 51° WSW 22:19:46 13° S
SPOT 5 2.7 22:16:39 25° SSE 22:19:04 64° ENE 22:23:25 10° N
Cosmos 2322 Rocket 4.3 22:16:03 10° NNE 22:19:07 14° NE 22:22:11 10° E
MetOp-B 4.1 22:15:12 18° SSE 22:19:13 88° ENE 22:24:36 10° NNW
NOAA 11 4.3 22:21:15 17° S 22:25:29 75° WSW 22:30:56 10° NNW
YAOGAN 11 4.0 22:25:48 26° SSE 22:28:13 88° WSW 22:32:35 10° NNW
Cosmos 1269 Rocket 4.4 22:26:05 25° SSE 22:28:41 42° ESE 22:33:40 10° NNE
H-2A R/B 3.6 22:28:29 21° E 22:30:02 25° ENE 22:33:44 10° NNE
Cosmos 1420 Rocket 4.2 22:25:09 10° N 22:30:19 57° ENE 22:32:48 29° SE
Lacrosse 5 3.7 22:32:56 15° E 22:32:56 15° E 22:34:18 10° ENE
CZ-3A R/B 2.1 22:28:55 10° WSW 22:31:46 28° NW 22:33:11 10° NNE
Meteor 1-4 Rocket 2.5 22:28:34 10° N 22:32:07 65° E 22:33:02 44° SE
Cosmos 1812 Rocket 4.4 22:28:25 10° N 22:32:33 35° ENE 22:33:49 29° ESE
Cosmos 2181 Rocket 4.2 22:26:25 10° SSW 22:32:46 73° W 22:39:03 10° N
Cosmos 1048 Rocket 4.2 22:30:46 26° SSE 22:33:19 48° ESE 22:38:18 10° NNE
Cosmos 1766 4.1 22:29:52 10° NNE 22:33:25 33° ENE 22:34:07 30° E
ISS -0.6 22:34:31 10° NW 22:36:15 13° N 22:37:58 10° NNE
Cosmos 1626 Rocket 3.5 22:38:00 34° SSE 22:39:46 67° E 22:44:04 10° NNE
DMSP B5D2-2 4.4 22:37:36 10° NNE 22:42:43 48° E 22:44:39 33° SSE
Cosmos 2082 Rocket 2.7 22:39:25 10° SW 22:45:02 62° WNW 22:50:39 10° NNE
ERS-1 Rocket 4.2 22:41:26 13° SSW 22:45:28 36° W 22:50:06 10° NNW
Cosmos 864 Rocket 4.5 22:40:25 10° N 22:46:42 74° E 22:49:55 30° SSE
Cosmos 2228 3.6 22:42:38 10° NNW 22:46:48 52° W 22:49:02 25° SSW
TELKOM 3 4.1 22:44:32 10° WNW 22:46:40 43° SW 22:46:40 43° SW
Cosmos 1452 Rocket 3.7 22:41:57 10° NNW 22:47:11 67° WSW 22:49:50 29° S
Lacrosse 5 rocket 3.7 22:47:49 10° NNW 22:51:22 21° NNE 22:54:38 11° ENE
Cosmos 1656 4.2 22:50:44 10° NW 22:55:59 49° WSW 22:58:44 27° SSW
Cosmos 1805 4.0 22:56:56 10° N 23:00:35 36° ENE 23:00:38 36° E
SPOT 1/Viking Rocket 3.7 22:59:04 33° S 23:01:25 68° WSW 23:06:33 10° NNW
Cosmos 1697 Rocket 2.9 22:56:06 10° NNW 23:01:41 65° WSW 23:04:02 34° S
Meteor 1-22 Rocket 4.2 23:04:11 10° NNW 23:09:30 72° W 23:11:43 36° S
SL-24 R/B - RUBIN 2 4.5 23:03:19 10° SSW 23:10:01 87° ESE 23:16:36 10° NNE
Cosmos 2366 rocket 4.2 23:06:50 10° NNW 23:12:56 66° W 23:16:01 30° SSW
USA 229 DEB 3.8 23:05:59 10° NW 23:13:12 88° NE 23:16:22 38° SE
Iridium 2 3.7 23:09:31 10° N 23:13:11 64° ENE 23:13:11 64° ENE
USA 229 3.8 23:06:05 10° NW 23:13:17 87° NE 23:16:28 38° SE
SL-16 R/B 3.2 23:08:28 10° N 23:13:38 34° ENE 23:15:34 27° E
Cosmos 2251 Rocket 4.4 23:14:09 32° E 23:14:09 32° E 23:18:49 10° NE
Cosmos 2360 4.2 23:08:45 10° NNW 23:14:29 80° ENE 23:16:15 46° SE
Cosmos 1758 3.9 23:11:17 10° N 23:14:57 42° ENE 23:14:57 42° ENE
Tiangong 2 2.1 23:12:15 10° WNW 23:14:31 43° WNW 23:14:31 43° WNW
Cosmos 1833 Rocket 4.1 23:10:42 10° SW 23:15:52 38° WNW 23:21:07 10° N
Cosmos 1602 Rocket 4.3 23:14:05 28° SW 23:16:00 49° W 23:20:13 10° N
CZ-4 R/B 4.1 23:11:33 10° NNE 23:16:29 53° E 23:17:06 50° SE
Cosmos 158 Rocket 4.2 23:15:00 23° SSW 23:18:18 70° WNW 23:23:41 10° NNE
Landsat 7 4.2 23:23:14 43° SSW 23:24:28 58° W 23:29:10 10° NNW
Cosmos 1544 3.2 23:23:04 10° N 23:26:22 72° NNW 23:26:22 72° NNW
Cosmos 1271 Rocket 2.9 23:24:35 10° NNW 23:28:30 67° W 23:28:35 66° WSW
Cosmos 1842 3.4 23:28:44 63° WSW 23:29:00 65° W 23:32:55 10° N
CZ-4B R/B 3.5 23:28:41 10° NNE 23:33:48 66° ESE 23:34:27 60° SE
deb Chang Zheng 4 3.5 23:29:43 10° N 23:34:03 81° WNW 23:34:29 70° SW
Cosmos 494 Rocket 4.0 23:36:46 58° ESE 23:36:55 58° ESE 23:41:59 10° NNE
Terra 2.1 23:38:44 51° SW 23:39:30 59° W 23:44:13 10° NNW
IGS 5A 3.8 23:39:46 55° WSW 23:39:55 56° W 23:44:02 10° NNW
CARTOSAT-1 4.0 23:40:58 50° WSW 23:41:18 51° W 23:45:32 10° NNW
SME Rocket 4.3 23:41:05 34° E 23:41:25 34° ENE 23:45:08 10° N
CZ-4C R/B 4.0 23:42:13 43° NNE 23:42:13 43° NNE 23:45:03 10° N
SL-19 R/B 4.2 23:36:43 10° N 23:41:59 71° WNW 23:43:40 43° SW
ATLAS CENTAUR R/B 2.0 23:39:27 10° NNW 23:42:28 42° NNE 23:42:28 42° NNE
H-2A R/B 3.5 23:47:26 22° SW 23:49:06 26° W 23:53:18 10° NW
Cosmos 2360 Rocket 3.6 23:45:12 10° N 23:50:02 28° NE 23:51:48 23° E
Cosmos 1980 Rocket 2.9 23:45:58 10° NW 23:51:14 42° WSW 23:52:22 37° SW
